Location: Newark
(37.4167°N, 6.2889°W)
Time: 00:48:03
(UTC+00:00)

Envisat - Visible Passes

Search period start: 20 March 2019 00:00
Search period end: 30 March 2019 00:00
Orbit: 764 x 766 km, 98.2° (Epoch: 19 March)

Date Brightness Start Highest point End Pass type
(mag) Time Alt. Az. Time Alt. Az. Time Alt. Az.
20 Mar 5.0 19:52:01 10° SSW 19:56:27 30° W 20:00:56 10° NW visible
21 Mar 3.3 19:14:32 10° S 19:19:35 72° WSW 19:24:41 10° NNW visible
22 Mar 5.8 20:18:56 10° SW 20:22:11 17° W 20:25:26 10° NW visible
23 Mar 4.5 19:40:28 10° SSW 19:45:11 39° W 19:49:56 10° NNW visible
24 Mar 3.0 19:03:18 10° SSE 19:08:22 89° E 19:13:29 10° NNW visible
25 Mar 5.5 20:07:00 10° SW 20:10:52 22° W 20:14:45 10° NW visible
26 Mar 4.0 19:29:01 10° S 19:33:56 50° W 19:38:52 10° NNW visible
27 Mar 6.1 20:34:56 10° WSW 20:36:39 12° W 20:38:23 10° WNW visible
28 Mar 5.1 19:55:16 10° SSW 19:59:34 28° W 20:03:54 10° NW visible
29 Mar 3.5 19:17:40 10° S 19:22:41 65° W 19:27:45 10° NNW visible
